When you browse on this site, cookies collect data to enhance your experience and personalize the content and advertising you see.
Visit our Privacy Policy to learn more. By continuing to use the site, you agree to this use of cookies and data.
  • In Portugal
  • List of Countries
  • For 7 days
  • Water Temperature
  • Satellite Maps
  • Weather Map
  • Weather Widgets
  • user-avatar
    Login

    Hourly Weather Starokrasnoe

    Today, 20 April, Saturday

    Time Temperature Precipitation Wind Pressure Humidity
    00:00 +7°C° 0 mm 1 mps 759 mmHg 54%
    01:00 +7°C° 0 mm 1 mps 759 mmHg 55%
    02:00 +5°C° 0 mm 2 mps 759 mmHg 57%
    03:00 +5°C° 0 mm 2 mps 759 mmHg 60%
    04:00 +5°C° 0 mm 2 mps 758 mmHg 62%
    05:00 +5°C° 0 mm 2 mps 758 mmHg 65%
    06:00 +6°C° 0 mm 2 mps 758 mmHg 61%
    07:00 +8°C° 0 mm 2 mps 758 mmHg 56%
    08:00 +10°C° 0 mm 2 mps 758 mmHg 52%
    09:00 +13°C° 0 mm 2 mps 757 mmHg 47%
    10:00 +14°C° 0 mm 2 mps 757 mmHg 41%
    11:00 +16°C° 0 mm 3 mps 757 mmHg 35%
    12:00 +16°C° 0 mm 2 mps 757 mmHg 34%
    13:00 +16°C° 0 mm 2 mps 756 mmHg 33%
    14:00 +17°C° 0 mm 2 mps 756 mmHg 32%
    15:00 +16°C° 0 mm 2 mps 756 mmHg 34%
    16:00 +16°C° 0 mm 1 mps 755 mmHg 36%
    17:00 +16°C° 0 mm 1 mps 755 mmHg 38%
    18:00 +14°C° 0 mm 2 mps 755 mmHg 42%
    19:00 +13°C° 0 mm 2 mps 755 mmHg 46%
    20:00 +12°C° 0 mm 2 mps 755 mmHg 50%
    21:00 +10°C° 0 mm 2 mps 755 mmHg 52%
    22:00 +10°C° 0 mm 2 mps 755 mmHg 54%
    23:00 +10°C° 0 mm 2 mps 755 mmHg 56%

    Tomorrow, 21 April, Sunday

    Time Temperature Precipitation Wind Pressure Humidity
    00:00 +9°C° 0 mm 2 mps 755 mmHg 59%
    01:00 +9°C° 0 mm 2 mps 755 mmHg 62%
    02:00 +9°C° 0 mm 2 mps 755 mmHg 65%
    03:00 +8°C° 0.3 mm 2 mps 754 mmHg 71%
    04:00 +8°C° 0.3 mm 2 mps 754 mmHg 78%
    05:00 +7°C° 0.3 mm 2 mps 754 mmHg 84%
    06:00 +8°C° 0.1 mm 2 mps 754 mmHg 79%
    07:00 +9°C° 0.1 mm 3 mps 754 mmHg 74%
    08:00 +11°C° 0.1 mm 3 mps 754 mmHg 68%
    09:00 +12°C° 0 mm 4 mps 754 mmHg 60%
    10:00 +13°C° 0 mm 5 mps 754 mmHg 51%
    11:00 +15°C° 0 mm 5 mps 754 mmHg 42%
    12:00 +15°C° 0 mm 6 mps 754 mmHg 42%
    13:00 +15°C° 0 mm 6 mps 754 mmHg 41%
    14:00 +15°C° 0 mm 6 mps 754 mmHg 40%
    15:00 +15°C° 0 mm 6 mps 754 mmHg 42%
    16:00 +14°C° 0 mm 5 mps 754 mmHg 44%
    17:00 +13°C° 0 mm 5 mps 754 mmHg 46%
    18:00 +13°C° 0 mm 5 mps 755 mmHg 47%
    19:00 +12°C° 0 mm 4 mps 755 mmHg 48%
    20:00 +11°C° 0 mm 4 mps 755 mmHg 49%
    21:00 +10°C° 0 mm 4 mps 756 mmHg 51%
    22:00 +8°C° 0 mm 4 mps 756 mmHg 53%
    23:00 +8°C° 0 mm 4 mps 757 mmHg 56%

    Day after tomorrow, 22 April, Monday

    Time Temperature Precipitation Wind Pressure Humidity
    00:00 +8°C° 0 mm 3 mps 757 mmHg 57%
    01:00 +8°C° 0 mm 3 mps 757 mmHg 59%
    02:00 +7°C° 0 mm 3 mps 757 mmHg 60%
    03:00 +7°C° 0 mm 2 mps 758 mmHg 63%
    04:00 +6°C° 0 mm 2 mps 758 mmHg 65%
    05:00 +6°C° 0 mm 2 mps 758 mmHg 67%
    06:00 +8°C° 0 mm 2 mps 758 mmHg 61%
    07:00 +9°C° 0 mm 3 mps 759 mmHg 54%
    08:00 +11°C° 0 mm 3 mps 759 mmHg 47%
    09:00 +12°C° 0 mm 3 mps 759 mmHg 43%
    10:00 +13°C° 0 mm 4 mps 759 mmHg 39%
    11:00 +14°C° 0 mm 4 mps 759 mmHg 35%
    12:00 +14°C° 0 mm 4 mps 759 mmHg 34%
    13:00 +14°C° 0 mm 4 mps 759 mmHg 34%
    14:00 +15°C° 0 mm 4 mps 759 mmHg 34%
    15:00 +14°C° 0 mm 3 mps 759 mmHg 35%
    16:00 +14°C° 0 mm 3 mps 759 mmHg 37%
    17:00 +14°C° 0 mm 3 mps 759 mmHg 38%
    18:00 +14°C° 0 mm 2 mps 759 mmHg 40%
    19:00 +13°C° 0 mm 2 mps 759 mmHg 43%
    20:00 +12°C° 0 mm 2 mps 760 mmHg 45%
    21:00 +12°C° 0 mm 2 mps 760 mmHg 46%
    22:00 +12°C° 0 mm 2 mps 760 mmHg 46%
    23:00 +11°C° 0 mm 1 mps 761 mmHg 47%

    23 April, Tuesday

    Time Temperature Precipitation Wind Pressure Humidity
    00:00 +11°C° 0 mm 1 mps 761 mmHg 49%
    01:00 +10°C° 0 mm 1 mps 761 mmHg 51%
    02:00 +9°C° 0 mm 2 mps 761 mmHg 52%
    03:00 +8°C° 0 mm 2 mps 761 mmHg 55%
    04:00 +8°C° 0 mm 2 mps 761 mmHg 58%
    05:00 +7°C° 0 mm 2 mps 761 mmHg 61%
    06:00 +8°C° 0 mm 2 mps 761 mmHg 57%
    07:00 +10°C° 0 mm 2 mps 761 mmHg 52%
    08:00 +13°C° 0 mm 2 mps 762 mmHg 48%
    09:00 +13°C° 0 mm 3 mps 761 mmHg 43%
    10:00 +14°C° 0 mm 3 mps 761 mmHg 38%
    11:00 +17°C° 0 mm 3 mps 761 mmHg 32%
    12:00 +17°C° 0 mm 3 mps 761 mmHg 33%
    13:00 +17°C° 0 mm 3 mps 761 mmHg 34%
    14:00 +17°C° 0 mm 4 mps 761 mmHg 34%
    15:00 +17°C° 0 mm 4 mps 760 mmHg 36%
    16:00 +17°C° 0 mm 4 mps 760 mmHg 37%
    17:00 +15°C° 0 mm 4 mps 760 mmHg 38%
    18:00 +14°C° 0 mm 3 mps 760 mmHg 44%
    19:00 +12°C° 0 mm 3 mps 760 mmHg 50%
    20:00 +10°C° 0 mm 2 mps 760 mmHg 57%
    21:00 +10°C° 0 mm 2 mps 760 mmHg 59%
    22:00 +9°C° 0 mm 2 mps 761 mmHg 62%
    23:00 +8°C° 0 mm 2 mps 761 mmHg 64%

    24 April, Wednesday

    Time Temperature Precipitation Wind Pressure Humidity
    00:00 +8°C° 0 mm 2 mps 761 mmHg 66%
    01:00 +8°C° 0 mm 2 mps 761 mmHg 67%
    02:00 +7°C° 0 mm 2 mps 761 mmHg 69%
    03:00 +7°C° 0 mm 2 mps 761 mmHg 69%
    04:00 +7°C° 0 mm 2 mps 761 mmHg 70%
    05:00 +6°C° 0 mm 2 mps 761 mmHg 71%
    06:00 +8°C° 0 mm 3 mps 761 mmHg 65%
    07:00 +10°C° 0 mm 3 mps 761 mmHg 59%
    08:00 +12°C° 0 mm 3 mps 761 mmHg 52%
    09:00 +14°C° 0 mm 4 mps 761 mmHg 48%
    10:00 +15°C° 0 mm 4 mps 761 mmHg 43%
    11:00 +16°C° 0 mm 5 mps 761 mmHg 39%
    12:00 +17°C° 0 mm 5 mps 761 mmHg 38%
    13:00 +17°C° 0 mm 5 mps 760 mmHg 38%
    14:00 +19°C° 0 mm 5 mps 760 mmHg 37%
    15:00 +17°C° 0 mm 5 mps 759 mmHg 38%
    16:00 +17°C° 0 mm 5 mps 759 mmHg 39%
    17:00 +17°C° 0 mm 5 mps 759 mmHg 41%
    18:00 +15°C° 0 mm 4 mps 759 mmHg 47%
    19:00 +13°C° 0 mm 3 mps 759 mmHg 53%
    20:00 +11°C° 0 mm 3 mps 759 mmHg 60%
    21:00 +11°C° 0 mm 3 mps 759 mmHg 61%
    22:00 +11°C° 0 mm 3 mps 759 mmHg 62%
    23:00 +10°C° 0 mm 3 mps 759 mmHg 63%

    25 April, Thursday

    Time Temperature Precipitation Wind Pressure Humidity
    00:00 +10°C° 0 mm 3 mps 759 mmHg 64%
    01:00 +9°C° 0 mm 3 mps 759 mmHg 64%
    02:00 +9°C° 0 mm 3 mps 759 mmHg 65%
    03:00 +8°C° 0 mm 3 mps 759 mmHg 66%
    04:00 +8°C° 0 mm 3 mps 759 mmHg 68%
    05:00 +8°C° 0 mm 3 mps 759 mmHg 69%
    06:00 +10°C° 0 mm 3 mps 759 mmHg 64%
    07:00 +11°C° 0 mm 4 mps 759 mmHg 59%
    08:00 +13°C° 0 mm 4 mps 759 mmHg 53%
    09:00 +15°C° 0 mm 5 mps 759 mmHg 49%
    10:00 +16°C° 0 mm 5 mps 759 mmHg 44%
    11:00 +19°C° 0 mm 6 mps 759 mmHg 39%
    12:00 +20°C° 0 mm 6 mps 758 mmHg 38%
    13:00 +20°C° 0 mm 5 mps 758 mmHg 37%
    14:00 +21°C° 0 mm 5 mps 757 mmHg 36%
    15:00 +21°C° 0 mm 5 mps 757 mmHg 37%
    16:00 +20°C° 0 mm 4 mps 757 mmHg 38%
    17:00 +20°C° 0 mm 4 mps 756 mmHg 39%
    18:00 +18°C° 0 mm 4 mps 756 mmHg 45%
    19:00 +16°C° 0 mm 3 mps 756 mmHg 52%
    20:00 +13°C° 0 mm 3 mps 756 mmHg 58%
    21:00 +13°C° 0 mm 3 mps 756 mmHg 61%
    22:00 +12°C° 0 mm 3 mps 756 mmHg 63%
    23:00 +12°C° 0 mm 3 mps 756 mmHg 65%
    Show more